When you browse on this site, cookies collect data to enhance your experience and personalize the content and advertising you see.
Visit our Privacy Policy to learn more. By continuing to use the site, you agree to this use of cookies and data.
  • In Hungary
  • List of Countries
  • For 7 days
  • Water Temperature
  • Weather Map
  • News
  • Weather Widgets
  • user-avatar
    Login

    Hourly Weather Radlice

    Today, 10 April, Friday

    Time Temperature Precipitation Wind Pressure Humidity
    00:00 +4°C° 0 mm 2 mps 763 mmHg 70%
    01:00 +4°C° 0 mm 2 mps 763 mmHg 72%
    02:00 +4°C° 0 mm 2 mps 763 mmHg 74%
    03:00 +3°C° 0 mm 2 mps 763 mmHg 77%
    04:00 +3°C° 0 mm 2 mps 763 mmHg 80%
    05:00 +4°C° 0 mm 2 mps 764 mmHg 77%
    06:00 +4°C° 0 mm 2 mps 764 mmHg 75%
    07:00 +5°C° 0 mm 2 mps 764 mmHg 73%
    08:00 +7°C° 0 mm 2 mps 764 mmHg 64%
    09:00 +8°C° 0 mm 2 mps 764 mmHg 56%
    10:00 +10°C° 0 mm 3 mps 765 mmHg 48%
    11:00 +10°C° 0 mm 3 mps 764 mmHg 45%
    12:00 +11°C° 0 mm 3 mps 764 mmHg 43%
    13:00 +12°C° 0 mm 3 mps 764 mmHg 41%
    14:00 +12°C° 0 mm 3 mps 764 mmHg 43%
    15:00 +11°C° 0 mm 3 mps 763 mmHg 44%
    16:00 +11°C° 0 mm 3 mps 763 mmHg 46%
    17:00 +10°C° 0 mm 3 mps 763 mmHg 53%
    18:00 +8°C° 0 mm 2 mps 763 mmHg 60%
    19:00 +7°C° 0 mm 2 mps 763 mmHg 67%
    20:00 +6°C° 0 mm 2 mps 763 mmHg 71%
    21:00 +5°C° 0 mm 2 mps 763 mmHg 75%
    22:00 +4°C° 0 mm 2 mps 763 mmHg 78%
    23:00 +5°C° 0 mm 1 mps 764 mmHg 80%

    Tomorrow, 11 April, Saturday

    Time Temperature Precipitation Wind Pressure Humidity
    00:00 +4°C° 0 mm 1 mps 764 mmHg 81%
    01:00 +3°C° 0 mm 0 mps 764 mmHg 83%
    02:00 +2°C° 0 mm 0 mps 764 mmHg 84%
    03:00 +3°C° 0 mm 1 mps 764 mmHg 85%
    04:00 +3°C° 0 mm 1 mps 764 mmHg 86%
    05:00 +4°C° 0 mm 1 mps 764 mmHg 82%
    06:00 +4°C° 0 mm 0 mps 764 mmHg 78%
    07:00 +5°C° 0 mm 0 mps 765 mmHg 74%
    08:00 +7°C° 0 mm 0 mps 765 mmHg 67%
    09:00 +8°C° 0 mm 0 mps 765 mmHg 60%
    10:00 +11°C° 0 mm 1 mps 765 mmHg 52%
    11:00 +12°C° 0 mm 1 mps 765 mmHg 49%
    12:00 +13°C° 0 mm 1 mps 765 mmHg 45%
    13:00 +14°C° 0 mm 1 mps 765 mmHg 42%
    14:00 +14°C° 0 mm 1 mps 764 mmHg 42%
    15:00 +14°C° 0 mm 1 mps 764 mmHg 43%
    16:00 +14°C° 0 mm 1 mps 763 mmHg 43%
    17:00 +12°C° 0 mm 1 mps 763 mmHg 48%
    18:00 +11°C° 0 mm 1 mps 763 mmHg 53%
    19:00 +9°C° 0 mm 0 mps 763 mmHg 58%
    20:00 +9°C° 0 mm 1 mps 762 mmHg 58%
    21:00 +9°C° 0 mm 1 mps 762 mmHg 59%
    22:00 +9°C° 0 mm 1 mps 762 mmHg 59%
    23:00 +8°C° 0 mm 2 mps 762 mmHg 59%

    Day after tomorrow, 12 April, Sunday

    Time Temperature Precipitation Wind Pressure Humidity
    00:00 +8°C° 0 mm 2 mps 762 mmHg 59%
    01:00 +8°C° 0 mm 2 mps 761 mmHg 59%
    02:00 +7°C° 0 mm 2 mps 761 mmHg 60%
    03:00 +7°C° 0 mm 2 mps 760 mmHg 62%
    04:00 +6°C° 0 mm 2 mps 760 mmHg 63%
    05:00 +7°C° 0 mm 2 mps 759 mmHg 63%
    06:00 +8°C° 0 mm 2 mps 759 mmHg 62%
    07:00 +8°C° 0 mm 2 mps 759 mmHg 61%
    08:00 +10°C° 0 mm 2 mps 758 mmHg 56%
    09:00 +12°C° 0 mm 3 mps 758 mmHg 51%
    10:00 +14°C° 0 mm 3 mps 757 mmHg 46%
    11:00 +17°C° 0 mm 3 mps 757 mmHg 44%
    12:00 +18°C° 0 mm 3 mps 757 mmHg 42%
    13:00 +19°C° 0 mm 3 mps 756 mmHg 40%
    14:00 +19°C° 0 mm 3 mps 755 mmHg 41%
    15:00 +19°C° 0 mm 3 mps 755 mmHg 42%
    16:00 +19°C° 0 mm 3 mps 754 mmHg 44%
    17:00 +18°C° 0 mm 2 mps 754 mmHg 50%
    18:00 +16°C° 0 mm 2 mps 753 mmHg 57%
    19:00 +14°C° 0 mm 1 mps 753 mmHg 63%
    20:00 +13°C° 0 mm 1 mps 753 mmHg 65%
    21:00 +13°C° 0 mm 1 mps 753 mmHg 67%
    22:00 +12°C° 0 mm 2 mps 752 mmHg 69%
    23:00 +12°C° 0 mm 2 mps 752 mmHg 71%

    13 April, Monday

    Time Temperature Precipitation Wind Pressure Humidity
    00:00 +10°C° 0 mm 2 mps 752 mmHg 73%
    01:00 +10°C° 0 mm 2 mps 751 mmHg 75%
    02:00 +9°C° 0 mm 2 mps 751 mmHg 77%
    03:00 +9°C° 0 mm 2 mps 751 mmHg 79%
    04:00 +8°C° 0 mm 2 mps 750 mmHg 81%
    05:00 +9°C° 0 mm 3 mps 750 mmHg 80%
    06:00 +10°C° 0 mm 3 mps 750 mmHg 79%
    07:00 +10°C° 0 mm 3 mps 750 mmHg 78%
    08:00 +11°C° 0.2 mm 4 mps 750 mmHg 78%
    09:00 +11°C° 0.2 mm 4 mps 750 mmHg 78%
    10:00 +12°C° 0.2 mm 4 mps 750 mmHg 78%
    11:00 +10°C° 0 mm 5 mps 750 mmHg 74%
    12:00 +10°C° 0 mm 5 mps 750 mmHg 69%
    13:00 +10°C° 0 mm 6 mps 750 mmHg 65%
    14:00 +9°C° 0 mm 7 mps 751 mmHg 66%
    15:00 +6°C° 0 mm 7 mps 751 mmHg 67%
    16:00 +5°C° 0 mm 7 mps 751 mmHg 68%
    17:00 +4°C° 0 mm 6 mps 752 mmHg 65%
    18:00 +3°C° 0 mm 5 mps 752 mmHg 62%
    19:00 +3°C° 0 mm 3 mps 753 mmHg 59%
    20:00 +3°C° 0 mm 3 mps 753 mmHg 58%
    21:00 +1°C° 0 mm 4 mps 754 mmHg 57%
    22:00 +1°C° 0 mm 4 mps 755 mmHg 56%
    23:00 0°C° 0 mm 4 mps 755 mmHg 53%

    14 April, Tuesday

    Time Temperature Precipitation Wind Pressure Humidity
    00:00 +1°C° 0 mm 3 mps 755 mmHg 51%
    01:00 0°C° 0 mm 3 mps 755 mmHg 48%
    02:00 0°C° 0 mm 3 mps 755 mmHg 52%
    03:00 -1°C° 0 mm 3 mps 755 mmHg 56%
    04:00 -2°C° 0 mm 3 mps 755 mmHg 60%
    05:00 0°C° 0 mm 3 mps 756 mmHg 56%
    06:00 0°C° 0 mm 4 mps 756 mmHg 52%
    07:00 +1°C° 0 mm 5 mps 757 mmHg 49%
    08:00 +2°C° 0 mm 6 mps 757 mmHg 46%
    09:00 +3°C° 0 mm 6 mps 757 mmHg 44%
    10:00 +4°C° 0 mm 6 mps 758 mmHg 41%
    11:00 +4°C° 0 mm 7 mps 758 mmHg 41%
    12:00 +5°C° 0 mm 7 mps 758 mmHg 41%
    13:00 +5°C° 0 mm 7 mps 758 mmHg 41%
    14:00 +5°C° 0 mm 6 mps 758 mmHg 43%
    15:00 +5°C° 0 mm 6 mps 758 mmHg 44%
    16:00 +4°C° 0 mm 6 mps 758 mmHg 45%
    17:00 +4°C° 0 mm 4 mps 758 mmHg 51%
    18:00 +3°C° 0 mm 3 mps 758 mmHg 56%
    19:00 +2°C° 0 mm 2 mps 758 mmHg 62%
    20:00 +2°C° 0 mm 2 mps 758 mmHg 65%
    21:00 +1°C° 0 mm 2 mps 759 mmHg 67%
    22:00 -1°C° 0 mm 2 mps 759 mmHg 70%
    23:00 -1°C° 0 mm 2 mps 759 mmHg 73%

    15 April, Wednesday

    Time Temperature Precipitation Wind Pressure Humidity
    00:00 -1°C° 0 mm 2 mps 759 mmHg 75%
    01:00 -1°C° 0 mm 2 mps 759 mmHg 78%
    02:00 -1°C° 0 mm 2 mps 759 mmHg 81%
    03:00 -1°C° 0 mm 2 mps 759 mmHg 85%
    04:00 -1°C° 0 mm 2 mps 759 mmHg 89%
    05:00 +1°C° 0 mm 2 mps 759 mmHg 84%
    06:00 +2°C° 0 mm 2 mps 759 mmHg 79%
    07:00 +3°C° 0 mm 2 mps 760 mmHg 73%
    08:00 +5°C° 0 mm 2 mps 760 mmHg 64%
    09:00 +7°C° 0 mm 2 mps 760 mmHg 54%
    10:00 +9°C° 0 mm 3 mps 760 mmHg 45%
    11:00 +10°C° 0 mm 3 mps 760 mmHg 43%
    12:00 +11°C° 0 mm 3 mps 760 mmHg 41%
    13:00 +12°C° 0 mm 3 mps 760 mmHg 39%
    14:00 +12°C° 0 mm 3 mps 760 mmHg 39%
    15:00 +12°C° 0 mm 3 mps 760 mmHg 40%
    16:00 +12°C° 0 mm 3 mps 760 mmHg 41%
    17:00 +10°C° 0 mm 3 mps 760 mmHg 46%
    18:00 +8°C° 0 mm 3 mps 760 mmHg 52%
    19:00 +5°C° 0 mm 3 mps 760 mmHg 58%
    20:00 +4°C° 0 mm 3 mps 761 mmHg 61%
    21:00 +4°C° 0 mm 2 mps 761 mmHg 63%
    22:00 +3°C° 0 mm 2 mps 761 mmHg 65%
    23:00 +3°C° 0 mm 2 mps 761 mmHg 66%
    Show more